Погода в Каймановке

Россия / Приморский край     43°37′52″N   132°13′45″E
темп.,
°C
ветер,
м/с
пор.,
м/с
влажн.,
%
обл.,
%
осадки,
мм/ч
давл.,
гПа
погр.,
м
19 апреля, пн
пн1901:00+6зсз11652 0.0 100710
04:00+4юз11703 0.0 100710
07:00+4ююз11690 0.0 100711
10:00+11зсз26410 0.0 1006552
13:00+16зсз47260 0.0 10041723
16:00+19зсз39204 0.0 10022828
19:00+17зсз25294 0.0 1003198
22:00+10ююв23465 0.0 100545
20 апреля, вт
вт2001:00+9ссв714565 0.0 1010868
04:00+7с7143870 0.0 10141302
07:00+3ссз513330 0.0 10181062
10:00+7ссз615200 0.0 10191696
13:00+12сз713140 0.0 10182385
16:00+14сз713150 0.0 10172611
19:00+12ссз510210 0.0 10181521
22:00+7зюз11320 0.0 102110
21 апреля, ср
ср2101:00+6з00350 0.0 102210
04:00+5в113642 0.0 102210
07:00+5ю113787 0.0 102310
10:00+14ююз11220 0.0 1022423
13:00+18юз33170 0.0 10211341
16:00+20ююз33180 0.0 10191179
19:00+17ю24260 0.0 1019164
22:00+11ююв23370 0.0 102060
22 апреля, чт
чт2201:00+9ююв2239100 0.0 102139
04:00+10юв2241100 0.0 102127
07:00+10ююв2247100 0.0 102124
10:00+17ю1335100 0.0 1021370
13:00+19ююз4635100 0.0 1021816
16:00+18ююз4732100 0.0 1020711
19:00+13ююз41141100 0.0 1022432
22:00+8ююз3949100 0.0 1024338
23 апреля, пт
пт2301:00+7ю3953100 0.0 1025362
04:00+7ю2855100 0.0 1025330
07:00+7ю2854100 0.0 1026296
10:00+11ю3544100 0.0 1025424
13:00+16ююз3438100 0.0 1024641
16:00+17юз2237100 0.0 1023659
19:00+15ююз2445100 0.0 1023182
22:00+11ююв1155100 0.0 102314